| |
Missouri Department of Transportation

Social Media Facebook Twitter Flickr Blog YouTube RSS

Current AWOS Information

 
AWOS Home - General Info for all Airports
Current AWOS for all Airports - Current METAR for all Airports
Glossary - Disclaimer - Other Links


SULLIVAN--SULLIVAN REGIONAL--KUUV
 
Recent AWOS History
 
08/01/14     10:42 PM CDT      03:42 GMT
Air Temperature 72°F (22°C ) 1st Cloud Layer Scattered at 7,000 feet
Dew Point 62°F (17°C) 2nd Cloud Layer  
Barometric Pressure 30.09 in Hg. 3rd Cloud Layer  
Wind Speed 4 mph (4 knots) Density Altitude  
Peak Wind Gusts   Variable Wind Directions  
Wind Direction Quadrant(170°) Variable Visibility  
Visibility 10 statute miles  

Thunderstorm and Precipitation Identification: 
Thunderstorm Remarks: 

Current METAR Record: METAR KUUV 010342Z AUTO 17004KT 10SM SCT070 22/16 A3009 RMK AO2

 

 

 

About Us
How Do I...
Contact Us
Missouri Department of Transportation
Central Office
105 W. Capitol Avenue
Jefferson City, MO 65102
1-888-ASK-MODOT (275-6636)
1-866-831-6277 (Motor Carrier Services)
Drivers License Offices
horz_bar
| | |
Missouri State Government
© 2013 Missouri Department of Transportation. All Rights Reserved.   Privacy Policy.
 
 
 
 
RSS FeedYoutubeBlogFlickrTwitter Facebook